Muskegon, MI

6:28 PM EST on January 16, 2017 (GMT -0500)
Muskegon County

Weather History for KMKG - December, 2013

Change the Weather History Date:

Wednesday, December 18, 2013

  Actual Average Record
Temperature  
Mean Temperature 32 °F 29 °F  
Max Temperature 38 °F 34 °F 53 °F (1939)
Min Temperature 26 °F 25 °F 2 °F (1945)
Degree Days  
Heating Degree Days 33 36  
Month to date heating degree days 694 599  
Since 1 July heating degree days 1965 1966  
Cooling Degree Days 0 0  
Month to date cooling degree days 0 0  
Year to date cooling degree days 626 566  
Moisture  
Dew Point 19 °F    
Average Humidity 61    
Maximum Humidity 75    
Minimum Humidity 46    
Precipitation  
Precipitation T in 0.08 in 0.64 in (2002)
Month to date precipitation 1.18 1.61  
Year to date precipitation 42.24 32.55  
Snow  
Snow T in 1.00 in 7.50 in (1963)
Month to date snowfall 16.6 15.9  
Since 1 July snowfall 25.5 22.1  
Snow Depth 7.00 in    
Sea Level Pressure  
Sea Level Pressure 29.99 in    
Wind  
Wind Speed 14 mph (SW)    
Max Wind Speed 30 mph    
Max Gust Speed 37 mph    
Visibility 10 miles    
Events Snow    
T = Trace of Precipitation, MM = Missing Value Source: NWS Daily Summary

Daily Weather History Graph

Daily Weather History Graph

Search for Another Location

Airport or City:

Trip Planner

Search our weather history database for the weather conditions in past years. The results will help you decide how hot, cold, wet, or windy it might be!

Date:

Astronomy

Dec. 18, 2013 Rise Set
Actual Time 8:12 AM EST 5:11 PM EST
Civil Twilight 7:39 AM EST 5:43 PM EST
Nautical Twilight 7:03 AM EST 6:19 PM EST
Astronomical Twilight 6:28 AM EST 6:54 PM EST
Moon 6:45 PM EST (12/18) 8:49 AM EST (12/18)
Length of Visible Light 10h 04m
Length of Day
8h 59m
Full, 98% of the Moon is Illuminated
Dec 18
Full
Dec 25
Last Quarter
Jan 1
New
Jan 7
First Quarter
Jan 15
Full

Hourly Weather History & Observations

Time (EST) Temp. Windchill Dew Point Humidity Pressure Visibility Wind Dir Wind Speed Gust Speed Precip Events Conditions
12:55 AM 30.9 °F 21.2 °F 18.0 °F 59% 30.00 in 10.0 mi WNW 12.7 mph 20.7 mph N/A   Overcast
1:55 AM 30.9 °F 20.2 °F 19.9 °F 64% 30.01 in 9.0 mi West 15.0 mph 20.7 mph 0.00 in Snow Light Snow
2:55 AM 30.0 °F 20.0 °F 17.1 °F 59% 30.01 in 10.0 mi West 12.7 mph - 0.00 in   Overcast
3:55 AM 30.0 °F 21.1 °F 19.0 °F 64% 30.04 in 10.0 mi WNW 10.4 mph - N/A   Overcast
4:55 AM 28.0 °F 15.7 °F 18.0 °F 66% 30.04 in 10.0 mi West 17.3 mph 26.5 mph N/A   Overcast
5:55 AM 27.0 °F 16.1 °F 16.0 °F 63% 30.07 in 10.0 mi West 12.7 mph 20.7 mph N/A   Overcast
6:55 AM 26.1 °F 17.6 °F 16.0 °F 66% 30.07 in 10.0 mi NW 8.1 mph - N/A   Overcast
7:55 AM 26.1 °F 16.8 °F 15.1 °F 63% 30.09 in 10.0 mi NW 9.2 mph - N/A   Overcast
8:55 AM 26.1 °F 18.4 °F 17.1 °F 69% 30.10 in 10.0 mi West 6.9 mph - N/A   Overcast
9:55 AM 26.1 °F 16.2 °F 17.1 °F 69% 30.11 in 10.0 mi WSW 10.4 mph - N/A   Overcast
10:55 AM 26.1 °F 16.8 °F 16.0 °F 66% 30.13 in 10.0 mi WSW 9.2 mph - N/A   Overcast
11:55 AM 26.1 °F 14.5 °F 17.1 °F 69% 30.12 in 10.0 mi WSW 13.8 mph - N/A   Overcast
12:55 PM 27.0 °F 16.7 °F 19.0 °F 72% 30.07 in 10.0 mi SSW 11.5 mph - N/A   Overcast
1:37 PM 28.4 °F 18.5 °F 19.4 °F 69% 30.04 in 10.0 mi SSW 11.5 mph - N/A   Mostly Cloudy
1:55 PM 28.0 °F 17.5 °F 19.9 °F 72% 30.05 in 10.0 mi South 12.7 mph 18.4 mph N/A   Mostly Cloudy
2:55 PM 30.0 °F 20.5 °F 21.0 °F 69% 30.00 in 10.0 mi South 11.5 mph 20.7 mph N/A   Mostly Cloudy
3:55 PM 28.9 °F 18.2 °F 21.0 °F 72% 29.96 in 10.0 mi South 13.8 mph 23.0 mph N/A   Mostly Cloudy
4:55 PM 28.9 °F 20.4 °F 16.0 °F 58% 29.91 in 10.0 mi SSE 9.2 mph - N/A   Mostly Cloudy
5:55 PM 28.9 °F 21.1 °F 12.0 °F 49% 29.89 in 10.0 mi SSE 8.1 mph - N/A   Mostly Cloudy
6:55 PM 28.9 °F 19.2 °F 10.9 °F 47% 29.87 in 10.0 mi South 11.5 mph - N/A   Mostly Cloudy
7:55 PM 34.0 °F 21.8 °F 23.0 °F 64% 29.86 in 10.0 mi SSW 23.0 mph 29.9 mph N/A   Mostly Cloudy
8:55 PM 36.0 °F 23.5 °F 25.0 °F 64% 29.84 in 9.0 mi SSW 27.6 mph 35.7 mph N/A   Overcast
9:55 PM 37.0 °F 25.9 °F 27.0 °F 67% 29.83 in 10.0 mi SW 23.0 mph 32.2 mph N/A   Overcast
10:55 PM 37.0 °F 24.9 °F 28.0 °F 70% 29.82 in 10.0 mi SW 27.6 mph 35.7 mph N/A   Mostly Cloudy
11:55 PM 37.9 °F 27.1 °F 28.9 °F 70% 29.81 in 10.0 mi SW 23.0 mph 32.2 mph N/A   Clear